Mount Pleasant, IA

3:34 PM CDT on August 27, 2016 (GMT -0500)
Mount Pleasant Municipal

Weather History for KMPZ - November, 2012

Change the Weather History Date:

Wednesday, November 7, 2012

  Actual Average Record
Temperature  
Mean Temperature 40 °F -  
Max Temperature 45 °F 52 °F 76 °F (1966)
Min Temperature 34 °F 33 °F 6 °F (1991)
Degree Days  
Heating Degree Days 26    
Moisture  
Dew Point 35 °F    
Average Humidity 79    
Maximum Humidity 93    
Minimum Humidity 61    
Precipitation  
Precipitation 0.00 in - - ()
Sea Level Pressure  
Sea Level Pressure 30.09 in    
Wind  
Wind Speed 8 mph (NNW)    
Max Wind Speed 15 mph    
Max Gust Speed 20 mph    
Visibility 10 miles    
Events      
Averages and records for this station are not official NWS values.
T = Trace of Precipitation, MM = Missing Value Source: NWS Daily Summary

Daily Weather History Graph

Daily Weather History Graph

Search for Another Location

Airport or City:

Trip Planner

Search our weather history database for the weather conditions in past years. The results will help you decide how hot, cold, wet, or windy it might be!

Date:

Astronomy

Nov. 07, 2012 Rise Set
Actual Time 6:44 AM CST 4:54 PM CST
Civil Twilight 6:15 AM CST 5:23 PM CST
Nautical Twilight 5:42 AM CST 5:56 PM CST
Astronomical Twilight 5:10 AM CST 6:28 PM CST
Moon No Moon Rise 1:06 PM CST (11/7)
Length of Visible Light 11h 07m
Length of Day
10h 10m
Last Quarter, 43% of the Moon is Illuminated
Nov 7
Last Quarter
Nov 13
New
Nov 20
First Quarter
Nov 28
Full
Dec 6
Last Quarter

Hourly Weather History & Observations

Time (CST) Temp. Windchill Dew Point Humidity Pressure Visibility Wind Dir Wind Speed Gust Speed Precip Events Conditions
12:15 AM 42.8 °F 37.5 °F 36.0 °F 77% 29.93 in 10.0 mi WNW 9.2 mph 17.3 mph N/A   Overcast
12:35 AM 42.6 °F 37.2 °F 36.1 °F 78% 29.93 in 10.0 mi WNW 9.2 mph - N/A   Overcast
12:55 AM 42.8 °F 37.0 °F 36.3 °F 78% 29.93 in 10.0 mi WNW 10.4 mph - N/A   Overcast
1:15 AM 42.8 °F 37.5 °F 36.5 °F 78% 29.93 in 10.0 mi WNW 9.2 mph - N/A   Overcast
1:35 AM 42.8 °F 36.6 °F 36.5 °F 78% 29.93 in 10.0 mi WNW 11.5 mph - N/A   Overcast
1:55 AM 42.8 °F 36.6 °F 36.7 °F 79% 29.93 in 10.0 mi WNW 11.5 mph - N/A   Overcast
2:15 AM 42.1 °F 37.1 °F 37.2 °F 83% 29.94 in 10.0 mi NW 8.1 mph - N/A   Overcast
2:55 AM 41.0 °F 34.3 °F 36.5 °F 84% 29.95 in 10.0 mi NNW 11.5 mph 18.4 mph N/A   Overcast
3:15 AM 40.3 °F 33.9 °F 36.1 °F 85% 29.95 in 10.0 mi NW 10.4 mph 19.6 mph N/A   Overcast
3:35 AM 40.3 °F 33.9 °F 36.1 °F 85% 29.95 in 10.0 mi NW 10.4 mph 17.3 mph N/A   Overcast
3:55 AM 40.1 °F 33.2 °F 36.5 °F 87% 29.96 in 10.0 mi NW 11.5 mph 17.3 mph N/A   Overcast
4:35 AM 39.2 °F 32.5 °F 37.4 °F 93% 29.98 in 5.0 mi NNW 10.4 mph 16.1 mph N/A   Overcast
4:55 AM 39.7 °F 31.5 °F 37.4 °F 91% 29.99 in 10.0 mi NNW 15.0 mph - N/A   Overcast
5:15 AM 39.7 °F 32.3 °F 37.4 °F 91% 30.00 in 10.0 mi NNW 12.7 mph - N/A   Overcast
5:35 AM 39.7 °F 32.7 °F 37.4 °F 91% 30.01 in 10.0 mi NNW 11.5 mph 16.1 mph N/A   Overcast
5:55 AM 39.7 °F 32.3 °F 37.4 °F 91% 30.01 in 10.0 mi NNW 12.7 mph - N/A   Overcast
6:15 AM 39.9 °F 32.9 °F 37.4 °F 91% 30.02 in 10.0 mi NNW 11.5 mph - N/A   Overcast
6:35 AM 39.9 °F 32.5 °F 37.4 °F 91% 30.03 in 10.0 mi NNW 12.7 mph - N/A   Overcast
6:55 AM 39.7 °F 32.7 °F 37.4 °F 91% 30.04 in 10.0 mi NNW 11.5 mph - N/A   Overcast
7:15 AM 39.9 °F 32.9 °F 37.2 °F 90% 30.06 in 10.0 mi NNW 11.5 mph - N/A   Overcast
7:35 AM 40.1 °F 33.2 °F 37.4 °F 90% 30.07 in 10.0 mi North 11.5 mph - N/A   Overcast
7:55 AM 40.1 °F 33.2 °F 37.4 °F 90% 30.08 in 10.0 mi NNW 11.5 mph - N/A   Overcast
8:15 AM 40.1 °F 34.7 °F 37.6 °F 91% 30.10 in 10.0 mi NNW 8.1 mph - N/A   Overcast
8:35 AM 40.5 °F 35.1 °F 37.8 °F 90% 30.10 in 10.0 mi North 8.1 mph - N/A   Overcast
8:55 AM 40.6 °F 35.4 °F 37.2 °F 88% 30.10 in 10.0 mi North 8.1 mph - N/A   Overcast
9:15 AM 41.2 °F 35.5 °F 36.7 °F 84% 30.11 in 10.0 mi North 9.2 mph - N/A   Overcast
9:35 AM 41.0 °F 35.2 °F 37.0 °F 86% 30.11 in 10.0 mi North 9.2 mph - N/A   Overcast
9:55 AM 41.4 °F 35.7 °F 36.3 °F 82% 30.13 in 10.0 mi North 9.2 mph - N/A   Overcast
10:15 AM 41.9 °F 36.3 °F 36.5 °F 81% 30.13 in 10.0 mi North 9.2 mph - N/A   Overcast
10:35 AM 42.1 °F 38.4 °F 35.4 °F 77% 30.13 in 10.0 mi NW 5.8 mph - N/A   Overcast
10:55 AM 42.3 °F 36.8 °F 34.3 °F 74% 30.14 in 10.0 mi NNW 9.2 mph - N/A   Overcast
11:15 AM 42.8 °F 38.6 °F 34.5 °F 73% 30.14 in 10.0 mi NNW 6.9 mph - N/A   Overcast
11:35 AM 43.3 °F 37.7 °F 35.8 °F 75% 30.14 in 10.0 mi NNW 10.4 mph - N/A   Overcast
11:55 AM 43.9 °F 39.9 °F 36.7 °F 76% 30.13 in 10.0 mi NNW 6.9 mph - N/A   Overcast
12:15 PM 44.6 °F 39.7 °F 36.7 °F 74% 30.12 in 10.0 mi NNE 9.2 mph - N/A   Overcast
12:35 PM 43.9 °F 40.5 °F 35.4 °F 72% 30.12 in 10.0 mi North 5.8 mph - N/A   Overcast
12:55 PM 43.9 °F 40.5 °F 34.9 °F 71% 30.12 in 10.0 mi NNE 5.8 mph - N/A   Overcast
1:15 PM 44.1 °F 40.8 °F 34.3 °F 69% 30.12 in 10.0 mi NNE 5.8 mph - N/A   Overcast
1:35 PM 44.2 °F 41.8 °F 33.1 °F 65% 30.12 in 10.0 mi NNW 4.6 mph - N/A   Overcast
1:55 PM 44.6 °F 41.4 °F 33.6 °F 65% 30.12 in 10.0 mi North 5.8 mph - N/A   Overcast
2:15 PM 45.0 °F 43.5 °F 32.5 °F 62% 30.11 in 10.0 mi WNW 3.5 mph - N/A   Overcast
2:35 PM 44.8 °F - 32.2 °F 61% 30.12 in 10.0 mi Calm Calm - N/A   Overcast
2:55 PM 44.6 °F 40.7 °F 32.9 °F 64% 30.13 in 10.0 mi WNW 6.9 mph - N/A   Overcast
3:15 PM 44.4 °F 42.9 °F 32.7 °F 64% 30.13 in 10.0 mi West 3.5 mph - N/A   Overcast
3:35 PM 44.6 °F - 32.7 °F 63% 30.13 in 10.0 mi Calm Calm - N/A   Overcast
3:55 PM 44.1 °F - 33.8 °F 67% 30.13 in 10.0 mi Calm Calm - N/A   Overcast
4:15 PM 44.1 °F - 33.3 °F 66% 30.13 in 10.0 mi Calm Calm - N/A   Overcast
4:35 PM 43.7 °F - 33.6 °F 68% 30.13 in 10.0 mi Calm Calm - N/A   Overcast
4:55 PM 43.7 °F - 33.6 °F 68% 30.13 in 10.0 mi Calm Calm - N/A   Overcast
5:15 PM 43.2 °F - 33.4 °F 69% 30.13 in 10.0 mi Calm Calm - N/A   Overcast
5:35 PM 43.0 °F - 35.1 °F 74% 30.13 in 10.0 mi Calm Calm - N/A   Overcast
5:55 PM 43.2 °F - 34.0 °F 70% 30.14 in 10.0 mi Calm Calm - N/A   Overcast
6:15 PM 42.6 °F - 35.2 °F 75% 30.14 in 10.0 mi Calm Calm - N/A   Overcast
6:35 PM 43.0 °F - 34.5 °F 72% 30.15 in 10.0 mi Calm Calm - N/A   Overcast
6:55 PM 42.8 °F - 35.4 °F 75% 30.15 in 10.0 mi Calm Calm - N/A   Overcast
7:15 PM 41.9 °F - 35.2 °F 77% 30.15 in 10.0 mi Calm Calm - N/A   Overcast
7:35 PM 42.1 °F - 36.3 °F 80% 30.15 in 10.0 mi Calm Calm - N/A   Overcast
7:55 PM 41.9 °F - 35.8 °F 79% 30.15 in 10.0 mi Calm Calm - N/A   Overcast
8:15 PM 41.9 °F 40.0 °F 35.6 °F 78% 30.15 in 10.0 mi SSE 3.5 mph - N/A   Overcast
8:35 PM 41.5 °F 39.6 °F 34.9 °F 77% 30.15 in 10.0 mi ESE 3.5 mph - N/A   Overcast
8:55 PM 41.4 °F 39.4 °F 35.6 °F 80% 30.15 in 10.0 mi ESE 3.5 mph - N/A   Overcast
9:15 PM 41.0 °F 39.0 °F 35.8 °F 82% 30.16 in 10.0 mi ESE 3.5 mph - N/A   Overcast
9:35 PM 41.0 °F 39.0 °F 35.6 °F 81% 30.16 in 10.0 mi SE 3.5 mph - N/A   Overcast
9:55 PM 41.0 °F 38.0 °F 35.1 °F 79% 30.16 in 10.0 mi SE 4.6 mph - N/A   Overcast
10:15 PM 39.4 °F 36.1 °F 34.3 °F 82% 30.16 in 10.0 mi SE 4.6 mph - N/A   Mostly Cloudy
10:35 PM 38.3 °F 33.9 °F 33.8 °F 84% 30.16 in 10.0 mi SE 5.8 mph - N/A   Scattered Clouds
10:55 PM 37.0 °F 31.6 °F 32.9 °F 85% 30.16 in 10.0 mi SE 6.9 mph - N/A   Scattered Clouds
11:15 PM 36.0 °F 31.1 °F 32.5 °F 87% 30.16 in 10.0 mi SSE 5.8 mph - N/A   Mostly Cloudy
11:35 PM 34.7 °F 30.6 °F 32.0 °F 90% 30.17 in 7.0 mi SSE 4.6 mph - N/A   Scattered Clouds
11:55 PM 34.7 °F 30.6 °F 32.0 °F 90% 30.17 in 7.0 mi SSE 4.6 mph - N/A   Clear